Time,TemperatureF,DewpointF,PressureIn,WindDirection,WindDirectionDegrees,WindSpeedMPH,WindSpeedGustMPH,Humidity,HourlyPrecipIn,Conditions,Clouds,dailyrainin,SoftwareType,DateUTC
2013-08-09 00:00:00,73.7,67.5,30.12,NE,45,0.0,-999.0,81,0.00,,,0.00,Wunderground v.1.15,2013-08-09 10:00:00,
2013-08-09 00:05:00,73.7,67.5,30.12,NE,45,0.0,-999.0,81,0.00,,,0.00,Wunderground v.1.15,2013-08-09 10:05:00,
2013-08-09 00:10:00,73.7,67.5,30.12,NE,45,0.0,-999.0,81,0.00,,,0.00,Wunderground v.1.15,2013-08-09 10:10:00,
2013-08-09 00:15:00,73.7,67.5,30.12,NE,45,0.0,-999.0,81,0.00,,,0.00,Wunderground v.1.15,2013-08-09 10:15:00,
2013-08-09 00:20:00,73.7,67.5,30.12,NE,45,0.0,-999.0,81,0.00,,,0.00,Wunderground v.1.15,2013-08-09 10:20:00,
2013-08-09 00:25:00,73.7,67.5,30.12,NE,45,0.0,-999.0,81,0.00,,,0.00,Wunderground v.1.15,2013-08-09 10:25:00,
2013-08-09 00:30:00,73.7,67.5,30.12,NE,45,0.0,-999.0,81,0.00,,,0.00,Wunderground v.1.15,2013-08-09 10:30:00,
2013-08-09 00:35:00,73.7,67.5,30.12,NE,45,0.0,-999.0,81,0.00,,,0.00,Wunderground v.1.15,2013-08-09 10:35:00,
2013-08-09 00:40:00,73.7,67.5,30.12,NE,45,0.0,-999.0,81,0.00,,,0.00,Wunderground v.1.15,2013-08-09 10:40:00,
2013-08-09 00:45:00,73.3,66.0,30.12,NE,45,1.0,-999.0,78,0.00,,,0.00,Wunderground v.1.15,2013-08-09 10:45:00,
2013-08-09 00:50:00,73.3,66.0,30.12,NE,45,1.0,-999.0,78,0.00,,,0.00,Wunderground v.1.15,2013-08-09 10:50:00,
2013-08-09 00:55:00,73.3,66.0,30.12,NE,45,1.0,-999.0,78,0.00,,,0.00,Wunderground v.1.15,2013-08-09 10:55:00,
2013-08-09 01:00:00,73.3,66.0,30.12,NE,45,1.0,-999.0,78,0.00,,,0.00,Wunderground v.1.15,2013-08-09 11:00:00,
2013-08-09 01:05:00,73.3,66.0,30.12,NE,45,1.0,-999.0,78,0.00,,,0.00,Wunderground v.1.15,2013-08-09 11:05:00,
2013-08-09 01:10:00,73.3,66.0,30.12,NE,45,1.0,-999.0,78,0.00,,,0.00,Wunderground v.1.15,2013-08-09 11:10:00,
2013-08-09 01:15:00,72.8,65.2,30.11,NE,45,0.0,-999.0,77,0.00,,,0.00,Wunderground v.1.15,2013-08-09 11:15:00,
2013-08-09 01:20:00,72.8,65.2,30.11,NE,45,0.0,-999.0,77,0.00,,,0.00,Wunderground v.1.15,2013-08-09 11:20:00,
2013-08-09 01:25:00,72.8,65.2,30.11,NE,45,0.0,-999.0,77,0.00,,,0.00,Wunderground v.1.15,2013-08-09 11:25:00,
2013-08-09 01:30:00,72.8,65.2,30.11,NE,45,0.0,-999.0,77,0.00,,,0.00,Wunderground v.1.15,2013-08-09 11:30:00,
2013-08-09 01:35:00,72.8,65.2,30.11,NE,45,0.0,-999.0,77,0.00,,,0.00,Wunderground v.1.15,2013-08-09 11:35:00,
2013-08-09 01:40:00,72.8,65.2,30.11,NE,45,0.0,-999.0,77,0.00,,,0.00,Wunderground v.1.15,2013-08-09 11:40:00,
2013-08-09 01:45:00,72.1,65.2,30.10,NE,45,1.0,-999.0,79,0.00,,,0.00,Wunderground v.1.15,2013-08-09 11:45:00,
2013-08-09 01:50:00,72.1,65.2,30.10,NE,45,1.0,-999.0,79,0.00,,,0.00,Wunderground v.1.15,2013-08-09 11:50:00,
2013-08-09 01:55:00,72.1,65.2,30.10,NE,45,1.0,-999.0,79,0.00,,,0.00,Wunderground v.1.15,2013-08-09 11:55:00,
2013-08-09 02:00:00,72.1,65.2,30.10,NE,45,1.0,-999.0,79,0.00,,,0.00,Wunderground v.1.15,2013-08-09 12:00:00,
2013-08-09 02:05:00,72.1,65.2,30.10,NE,45,1.0,-999.0,79,0.00,,,0.00,Wunderground v.1.15,2013-08-09 12:05:00,
2013-08-09 02:10:00,72.1,65.2,30.10,NE,45,1.0,-999.0,79,0.00,,,0.00,Wunderground v.1.15,2013-08-09 12:10:00,
2013-08-09 02:15:00,72.0,65.1,30.09,NE,45,1.0,-999.0,79,0.00,,,0.00,Wunderground v.1.15,2013-08-09 12:15:00,
2013-08-09 02:20:00,72.0,65.1,30.09,NE,45,1.0,-999.0,79,0.00,,,0.00,Wunderground v.1.15,2013-08-09 12:20:00,
2013-08-09 02:25:00,72.0,65.1,30.09,NE,45,1.0,-999.0,79,0.00,,,0.00,Wunderground v.1.15,2013-08-09 12:25:00,
2013-08-09 02:30:00,72.0,65.1,30.09,NE,45,1.0,-999.0,79,0.00,,,0.00,Wunderground v.1.15,2013-08-09 12:30:00,
2013-08-09 02:35:00,72.0,65.1,30.09,NE,45,1.0,-999.0,79,0.00,,,0.00,Wunderground v.1.15,2013-08-09 12:35:00,
2013-08-09 02:40:00,72.0,65.1,30.09,NE,45,1.0,-999.0,79,0.00,,,0.00,Wunderground v.1.15,2013-08-09 12:40:00,
2013-08-09 02:45:00,71.7,65.2,30.08,NE,45,0.0,-999.0,80,0.00,,,0.00,Wunderground v.1.15,2013-08-09 12:45:00,
2013-08-09 02:50:00,71.7,65.2,30.08,NE,45,0.0,-999.0,80,0.00,,,0.00,Wunderground v.1.15,2013-08-09 12:50:00,
2013-08-09 02:55:00,71.7,65.2,30.08,NE,45,0.0,-999.0,80,0.00,,,0.00,Wunderground v.1.15,2013-08-09 12:55:00,
2013-08-09 03:00:00,71.7,65.2,30.08,NE,45,0.0,-999.0,80,0.00,,,0.00,Wunderground v.1.15,2013-08-09 13:00:00,
2013-08-09 03:05:00,71.7,65.2,30.08,NE,45,0.0,-999.0,80,0.00,,,0.00,Wunderground v.1.15,2013-08-09 13:05:00,
2013-08-09 03:10:00,71.7,65.2,30.08,NE,45,0.0,-999.0,80,0.00,,,0.00,Wunderground v.1.15,2013-08-09 13:10:00,
2013-08-09 03:15:00,71.4,65.3,30.07,NE,45,0.0,-999.0,81,0.00,,,0.00,Wunderground v.1.15,2013-08-09 13:15:00,
2013-08-09 03:20:00,71.4,65.3,30.07,NE,45,0.0,-999.0,81,0.00,,,0.00,Wunderground v.1.15,2013-08-09 13:20:00,
2013-08-09 03:25:00,71.4,65.3,30.07,NE,45,0.0,-999.0,81,0.00,,,0.00,Wunderground v.1.15,2013-08-09 13:25:00,
2013-08-09 03:30:00,71.4,65.3,30.07,NE,45,0.0,-999.0,81,0.00,,,0.00,Wunderground v.1.15,2013-08-09 13:30:00,
2013-08-09 03:35:00,71.4,65.3,30.07,NE,45,0.0,-999.0,81,0.00,,,0.00,Wunderground v.1.15,2013-08-09 13:35:00,
2013-08-09 03:40:00,71.4,65.3,30.07,NE,45,0.0,-999.0,81,0.00,,,0.00,Wunderground v.1.15,2013-08-09 13:40:00,
2013-08-09 03:45:00,71.0,65.6,30.07,NE,45,0.0,-999.0,83,0.00,,,0.00,Wunderground v.1.15,2013-08-09 13:45:00,
2013-08-09 03:50:00,71.0,65.6,30.07,NE,45,0.0,-999.0,83,0.00,,,0.00,Wunderground v.1.15,2013-08-09 13:50:00,
2013-08-09 03:55:00,71.0,65.6,30.07,NE,45,0.0,-999.0,83,0.00,,,0.00,Wunderground v.1.15,2013-08-09 13:55:00,
2013-08-09 04:00:00,71.0,65.6,30.07,NE,45,0.0,-999.0,83,0.00,,,0.00,Wunderground v.1.15,2013-08-09 14:00:00,
2013-08-09 04:05:00,71.0,65.6,30.07,NE,45,0.0,-999.0,83,0.00,,,0.00,Wunderground v.1.15,2013-08-09 14:05:00,
2013-08-09 04:10:00,71.0,65.6,30.07,NE,45,0.0,-999.0,83,0.00,,,0.00,Wunderground v.1.15,2013-08-09 14:10:00,
2013-08-09 04:15:00,71.0,64.9,30.07,NE,45,1.0,-999.0,81,0.00,,,0.00,Wunderground v.1.15,2013-08-09 14:15:00,
2013-08-09 04:20:00,71.0,64.9,30.07,NE,45,1.0,-999.0,81,0.00,,,0.00,Wunderground v.1.15,2013-08-09 14:20:00,
2013-08-09 04:25:00,71.0,64.9,30.07,NE,45,1.0,-999.0,81,0.00,,,0.00,Wunderground v.1.15,2013-08-09 14:25:00,
2013-08-09 04:30:00,71.0,64.9,30.07,NE,45,1.0,-999.0,81,0.00,,,0.00,Wunderground v.1.15,2013-08-09 14:30:00,
2013-08-09 04:35:00,71.0,64.9,30.07,NE,45,1.0,-999.0,81,0.00,,,0.00,Wunderground v.1.15,2013-08-09 14:35:00,
2013-08-09 04:40:00,71.0,64.9,30.07,NE,45,1.0,-999.0,81,0.00,,,0.00,Wunderground v.1.15,2013-08-09 14:40:00,
2013-08-09 04:45:00,71.9,65.4,30.07,NE,45,0.0,-999.0,80,0.00,,,0.00,Wunderground v.1.15,2013-08-09 14:45:00,
2013-08-09 04:50:00,71.9,65.4,30.07,NE,45,0.0,-999.0,80,0.00,,,0.00,Wunderground v.1.15,2013-08-09 14:50:00,
2013-08-09 04:55:00,71.9,65.4,30.07,NE,45,0.0,-999.0,80,0.00,,,0.00,Wunderground v.1.15,2013-08-09 14:55:00,
2013-08-09 05:00:00,71.9,65.4,30.07,NE,45,0.0,-999.0,80,0.00,,,0.00,Wunderground v.1.15,2013-08-09 15:00:00,
2013-08-09 05:05:00,71.9,65.4,30.07,NE,45,0.0,-999.0,80,0.00,,,0.00,Wunderground v.1.15,2013-08-09 15:05:00,
2013-08-09 05:10:00,71.9,65.4,30.07,NE,45,0.0,-999.0,80,0.00,,,0.00,Wunderground v.1.15,2013-08-09 15:10:00,
2013-08-09 05:15:00,72.2,64.6,30.07,NE,45,1.0,-999.0,77,0.00,,,0.00,Wunderground v.1.15,2013-08-09 15:15:00,
2013-08-09 05:20:00,72.2,64.6,30.07,NE,45,1.0,-999.0,77,0.00,,,0.00,Wunderground v.1.15,2013-08-09 15:20:00,
2013-08-09 05:25:00,72.2,64.6,30.07,NE,45,1.0,-999.0,77,0.00,,,0.00,Wunderground v.1.15,2013-08-09 15:25:00,
2013-08-09 05:30:00,72.2,64.6,30.07,NE,45,1.0,-999.0,77,0.00,,,0.00,Wunderground v.1.15,2013-08-09 15:30:00,
2013-08-09 05:35:00,72.2,64.6,30.07,NE,45,1.0,-999.0,77,0.00,,,0.00,Wunderground v.1.15,2013-08-09 15:35:00,
2013-08-09 05:40:00,72.2,64.6,30.07,NE,45,1.0,-999.0,77,0.00,,,0.00,Wunderground v.1.15,2013-08-09 15:40:00,
2013-08-09 05:45:00,71.8,64.6,30.08,NE,45,1.0,-999.0,78,0.00,,,0.00,Wunderground v.1.15,2013-08-09 15:45:00,
2013-08-09 05:50:00,71.8,64.6,30.08,NE,45,1.0,-999.0,78,0.00,,,0.00,Wunderground v.1.15,2013-08-09 15:50:00,
2013-08-09 05:55:00,71.8,64.6,30.08,NE,45,1.0,-999.0,78,0.00,,,0.00,Wunderground v.1.15,2013-08-09 15:55:00,
2013-08-09 06:00:00,71.8,64.6,30.08,NE,45,1.0,-999.0,78,0.00,,,0.00,Wunderground v.1.15,2013-08-09 16:00:00,
2013-08-09 06:05:00,71.8,64.6,30.08,NE,45,1.0,-999.0,78,0.00,,,0.00,Wunderground v.1.15,2013-08-09 16:05:00,
2013-08-09 06:10:00,71.8,64.6,30.08,NE,45,1.0,-999.0,78,0.00,,,0.00,Wunderground v.1.15,2013-08-09 16:10:00,
2013-08-09 06:15:00,71.2,64.7,30.09,NE,45,0.0,-999.0,80,0.00,,,0.00,Wunderground v.1.15,2013-08-09 16:15:00,
2013-08-09 06:20:00,71.2,64.7,30.09,NE,45,0.0,-999.0,80,0.00,,,0.00,Wunderground v.1.15,2013-08-09 16:20:00,
2013-08-09 06:25:00,71.2,64.7,30.09,NE,45,0.0,-999.0,80,0.00,,,0.00,Wunderground v.1.15,2013-08-09 16:25:00,
2013-08-09 06:30:00,71.2,64.7,30.09,NE,45,0.0,-999.0,80,0.00,,,0.00,Wunderground v.1.15,2013-08-09 16:30:00,
2013-08-09 06:35:00,71.2,64.7,30.09,NE,45,0.0,-999.0,80,0.00,,,0.00,Wunderground v.1.15,2013-08-09 16:35:00,
2013-08-09 06:40:00,71.2,64.7,30.09,NE,45,0.0,-999.0,80,0.00,,,0.00,Wunderground v.1.15,2013-08-09 16:40:00,
2013-08-09 06:45:00,71.3,64.8,30.09,NE,45,1.0,-999.0,80,0.00,,,0.00,Wunderground v.1.15,2013-08-09 16:45:00,
2013-08-09 06:50:00,71.3,64.8,30.09,NE,45,1.0,-999.0,80,0.00,,,0.00,Wunderground v.1.15,2013-08-09 16:50:00,
2013-08-09 06:55:00,71.3,64.8,30.09,NE,45,1.0,-999.0,80,0.00,,,0.00,Wunderground v.1.15,2013-08-09 16:55:00,
2013-08-09 07:00:00,71.3,64.8,30.09,NE,45,1.0,-999.0,80,0.00,,,0.00,Wunderground v.1.15,2013-08-09 17:00:00,
2013-08-09 07:05:00,71.3,64.8,30.09,NE,45,1.0,-999.0,80,0.00,,,0.00,Wunderground v.1.15,2013-08-09 17:05:00,
2013-08-09 07:10:00,71.3,64.8,30.09,NE,45,1.0,-999.0,80,0.00,,,0.00,Wunderground v.1.15,2013-08-09 17:10:00,
2013-08-09 07:15:00,74.8,63.5,30.09,NE,45,3.0,-999.0,68,0.00,,,0.00,Wunderground v.1.15,2013-08-09 17:15:00,
2013-08-09 07:20:00,74.8,63.5,30.09,NE,45,3.0,-999.0,68,0.00,,,0.00,Wunderground v.1.15,2013-08-09 17:20:00,
2013-08-09 07:25:00,74.8,63.5,30.09,NE,45,3.0,-999.0,68,0.00,,,0.00,Wunderground v.1.15,2013-08-09 17:25:00,
2013-08-09 07:30:00,74.8,63.5,30.09,NE,45,3.0,-999.0,68,0.00,,,0.00,Wunderground v.1.15,2013-08-09 17:30:00,
2013-08-09 07:35:00,74.8,63.5,30.09,NE,45,3.0,-999.0,68,0.00,,,0.00,Wunderground v.1.15,2013-08-09 17:35:00,
2013-08-09 07:40:00,74.8,63.5,30.09,NE,45,3.0,-999.0,68,0.00,,,0.00,Wunderground v.1.15,2013-08-09 17:40:00,
2013-08-09 07:45:00,78.7,64.1,30.09,NE,45,3.0,-999.0,61,0.00,,,0.00,Wunderground v.1.15,2013-08-09 17:45:00,
2013-08-09 07:50:00,78.7,64.1,30.09,NE,45,3.0,-999.0,61,0.00,,,0.00,Wunderground v.1.15,2013-08-09 17:50:00,
2013-08-09 07:55:00,78.7,64.1,30.09,NE,45,3.0,-999.0,61,0.00,,,0.00,Wunderground v.1.15,2013-08-09 17:55:00,
2013-08-09 08:00:00,78.7,64.1,30.09,NE,45,3.0,-999.0,61,0.00,,,0.00,Wunderground v.1.15,2013-08-09 18:00:00,
2013-08-09 08:05:00,78.7,64.1,30.09,NE,45,3.0,-999.0,61,0.00,,,0.00,Wunderground v.1.15,2013-08-09 18:05:00,
2013-08-09 08:10:00,78.7,64.1,30.09,NE,45,3.0,-999.0,61,0.00,,,0.00,Wunderground v.1.15,2013-08-09 18:10:00,
2013-08-09 08:15:00,80.4,68.9,30.10,NE,45,1.0,-999.0,68,0.00,,,0.00,Wunderground v.1.15,2013-08-09 18:15:00,
2013-08-09 08:20:00,80.4,68.9,30.10,NE,45,1.0,-999.0,68,0.00,,,0.00,Wunderground v.1.15,2013-08-09 18:20:00,
2013-08-09 08:25:00,80.4,68.9,30.10,NE,45,1.0,-999.0,68,0.00,,,0.00,Wunderground v.1.15,2013-08-09 18:25:00,
2013-08-09 08:30:00,80.4,68.9,30.10,NE,45,1.0,-999.0,68,0.00,,,0.00,Wunderground v.1.15,2013-08-09 18:30:00,
2013-08-09 08:35:00,80.4,68.9,30.10,NE,45,1.0,-999.0,68,0.00,,,0.00,Wunderground v.1.15,2013-08-09 18:35:00,
2013-08-09 08:40:00,80.4,68.9,30.10,NE,45,1.0,-999.0,68,0.00,,,0.00,Wunderground v.1.15,2013-08-09 18:40:00,
2013-08-09 08:45:00,82.2,65.4,30.10,NE,45,4.0,-999.0,57,0.00,,,0.00,Wunderground v.1.15,2013-08-09 18:45:00,
2013-08-09 08:50:00,82.2,65.4,30.10,NE,45,4.0,-999.0,57,0.00,,,0.00,Wunderground v.1.15,2013-08-09 18:50:00,
2013-08-09 08:55:00,82.2,65.4,30.10,NE,45,4.0,-999.0,57,0.00,,,0.00,Wunderground v.1.15,2013-08-09 18:55:00,
2013-08-09 09:00:00,82.2,65.4,30.10,NE,45,4.0,-999.0,57,0.00,,,0.02,Wunderground v.1.15,2013-08-09 19:00:00,
2013-08-09 09:05:00,82.2,65.4,30.10,NE,45,4.0,-999.0,57,0.00,,,0.02,Wunderground v.1.15,2013-08-09 19:05:00,
2013-08-09 09:07:00,82.2,65.4,30.10,NE,45,4.0,-999.0,57,0.00,,,0.00,Wunderground v.1.15,2013-08-09 19:07:00,
2013-08-09 09:10:00,82.2,65.4,30.10,NE,45,4.0,-999.0,57,0.00,,,0.02,Wunderground v.1.15,2013-08-09 19:10:00,
2013-08-09 09:15:00,85.1,67.6,30.10,NE,45,7.0,-999.0,56,0.00,,,0.02,Wunderground v.1.15,2013-08-09 19:15:00,
2013-08-09 09:20:00,85.1,67.6,30.10,NE,45,7.0,-999.0,56,0.00,,,0.02,Wunderground v.1.15,2013-08-09 19:20:00,
2013-08-09 09:25:00,85.1,67.6,30.10,NE,45,7.0,-999.0,56,0.00,,,0.02,Wunderground v.1.15,2013-08-09 19:25:00,
2013-08-09 09:30:00,85.1,67.6,30.10,NE,45,7.0,-999.0,56,0.00,,,0.02,Wunderground v.1.15,2013-08-09 19:30:00,
2013-08-09 09:35:00,85.1,67.6,30.10,NE,45,7.0,-999.0,56,0.00,,,0.02,Wunderground v.1.15,2013-08-09 19:35:00,
2013-08-09 09:40:00,85.1,67.6,30.10,NE,45,7.0,-999.0,56,0.00,,,0.02,Wunderground v.1.15,2013-08-09 19:40:00,
2013-08-09 09:45:00,86.3,67.2,30.10,NE,45,6.0,-999.0,53,0.00,,,0.02,Wunderground v.1.15,2013-08-09 19:45:00,
2013-08-09 09:50:00,86.3,67.2,30.10,NE,45,6.0,-999.0,53,0.00,,,0.02,Wunderground v.1.15,2013-08-09 19:50:00,
2013-08-09 09:55:00,86.3,67.2,30.10,NE,45,6.0,-999.0,53,0.00,,,0.02,Wunderground v.1.15,2013-08-09 19:55:00,
2013-08-09 10:00:00,86.3,67.2,30.10,NE,45,6.0,-999.0,53,0.00,,,0.02,Wunderground v.1.15,2013-08-09 20:00:00,
2013-08-09 10:05:00,86.3,67.2,30.10,NE,45,6.0,-999.0,53,0.00,,,0.02,Wunderground v.1.15,2013-08-09 20:05:00,
2013-08-09 10:10:00,86.3,67.2,30.10,NE,45,6.0,-999.0,53,0.00,,,0.02,Wunderground v.1.15,2013-08-09 20:10:00,
2013-08-09 10:15:00,87.9,69.2,30.09,NE,45,7.0,-999.0,54,0.00,,,0.02,Wunderground v.1.15,2013-08-09 20:15:00,
2013-08-09 10:20:00,87.9,69.2,30.09,NE,45,7.0,-999.0,54,0.00,,,0.02,Wunderground v.1.15,2013-08-09 20:20:00,
2013-08-09 10:25:00,87.9,69.2,30.09,NE,45,7.0,-999.0,54,0.00,,,0.02,Wunderground v.1.15,2013-08-09 20:25:00,
2013-08-09 10:30:00,87.9,69.2,30.09,NE,45,7.0,-999.0,54,0.00,,,0.02,Wunderground v.1.15,2013-08-09 20:30:00,
2013-08-09 10:35:00,87.9,69.2,30.09,NE,45,7.0,-999.0,54,0.00,,,0.02,Wunderground v.1.15,2013-08-09 20:35:00,
2013-08-09 10:40:00,87.9,69.2,30.09,NE,45,7.0,-999.0,54,0.00,,,0.02,Wunderground v.1.15,2013-08-09 20:40:00,
2013-08-09 10:45:00,89.1,69.2,30.09,NE,45,8.0,-999.0,52,0.00,,,0.02,Wunderground v.1.15,2013-08-09 20:45:00,
2013-08-09 10:50:00,89.1,69.2,30.09,NE,45,8.0,-999.0,52,0.00,,,0.02,Wunderground v.1.15,2013-08-09 20:50:00,
2013-08-09 10:55:00,89.1,69.2,30.09,NE,45,8.0,-999.0,52,0.00,,,0.02,Wunderground v.1.15,2013-08-09 20:55:00,
2013-08-09 11:00:00,89.1,69.2,30.09,NE,45,8.0,-999.0,52,0.00,,,0.02,Wunderground v.1.15,2013-08-09 21:00:00,
2013-08-09 11:05:00,89.1,69.2,30.09,NE,45,8.0,-999.0,52,0.00,,,0.02,Wunderground v.1.15,2013-08-09 21:05:00,
2013-08-09 11:10:00,89.1,69.2,30.09,NE,45,8.0,-999.0,52,0.00,,,0.02,Wunderground v.1.15,2013-08-09 21:10:00,
2013-08-09 11:15:00,89.8,69.8,30.08,NE,45,7.0,-999.0,52,0.00,,,0.02,Wunderground v.1.15,2013-08-09 21:15:00,
2013-08-09 11:20:00,89.8,69.8,30.08,NE,45,7.0,-999.0,52,0.00,,,0.02,Wunderground v.1.15,2013-08-09 21:20:00,
2013-08-09 11:25:00,89.8,69.8,30.08,NE,45,7.0,-999.0,52,0.00,,,0.02,Wunderground v.1.15,2013-08-09 21:25:00,
2013-08-09 11:30:00,89.8,69.8,30.08,NE,45,7.0,-999.0,52,0.00,,,0.02,Wunderground v.1.15,2013-08-09 21:30:00,
2013-08-09 11:35:00,89.8,69.8,30.08,NE,45,7.0,-999.0,52,0.00,,,0.02,Wunderground v.1.15,2013-08-09 21:35:00,
2013-08-09 11:40:00,89.8,69.8,30.08,NE,45,7.0,-999.0,52,0.00,,,0.02,Wunderground v.1.15,2013-08-09 21:40:00,
2013-08-09 11:45:00,89.5,71.2,30.08,NE,45,9.0,-999.0,55,0.00,,,0.02,Wunderground v.1.15,2013-08-09 21:45:00,
2013-08-09 11:50:00,89.5,71.2,30.08,NE,45,9.0,-999.0,55,0.00,,,0.02,Wunderground v.1.15,2013-08-09 21:50:00,
2013-08-09 11:55:00,89.5,71.2,30.08,NE,45,9.0,-999.0,55,0.00,,,0.02,Wunderground v.1.15,2013-08-09 21:55:00,
2013-08-09 12:00:00,89.5,71.2,30.08,NE,45,9.0,-999.0,55,0.00,,,0.02,Wunderground v.1.15,2013-08-09 22:00:00,
2013-08-09 12:05:00,89.5,71.2,30.08,NE,45,9.0,-999.0,55,0.00,,,0.02,Wunderground v.1.15,2013-08-09 22:05:00,
2013-08-09 12:10:00,89.5,71.2,30.08,NE,45,9.0,-999.0,55,0.00,,,0.02,Wunderground v.1.15,2013-08-09 22:10:00,
2013-08-09 12:15:00,90.0,71.7,30.07,NE,45,9.0,-999.0,55,0.00,,,0.02,Wunderground v.1.15,2013-08-09 22:15:00,
2013-08-09 12:20:00,90.0,71.7,30.07,NE,45,9.0,-999.0,55,0.00,,,0.02,Wunderground v.1.15,2013-08-09 22:20:00,
2013-08-09 12:25:00,90.0,71.7,30.07,NE,45,9.0,-999.0,55,0.00,,,0.02,Wunderground v.1.15,2013-08-09 22:25:00,
2013-08-09 12:30:00,90.0,71.7,30.07,NE,45,9.0,-999.0,55,0.00,,,0.02,Wunderground v.1.15,2013-08-09 22:30:00,
2013-08-09 12:35:00,90.0,71.7,30.07,NE,45,9.0,-999.0,55,0.00,,,0.02,Wunderground v.1.15,2013-08-09 22:35:00,
2013-08-09 12:40:00,90.0,71.7,30.07,NE,45,9.0,-999.0,55,0.00,,,0.02,Wunderground v.1.15,2013-08-09 22:40:00,
2013-08-09 12:45:00,90.7,72.3,30.07,NE,45,9.0,-999.0,55,0.00,,,0.02,Wunderground v.1.15,2013-08-09 22:45:00,
2013-08-09 12:50:00,90.7,72.3,30.07,NE,45,9.0,-999.0,55,0.00,,,0.02,Wunderground v.1.15,2013-08-09 22:50:00,
2013-08-09 12:55:00,90.7,72.3,30.07,NE,45,9.0,-999.0,55,0.00,,,0.02,Wunderground v.1.15,2013-08-09 22:55:00,
2013-08-09 13:00:00,90.7,72.3,30.07,NE,45,9.0,-999.0,55,0.00,,,0.02,Wunderground v.1.15,2013-08-09 23:00:00,
2013-08-09 13:05:00,90.7,72.3,30.07,NE,45,9.0,-999.0,55,0.00,,,0.02,Wunderground v.1.15,2013-08-09 23:05:00,
2013-08-09 13:10:00,90.7,72.3,30.07,NE,45,9.0,-999.0,55,0.00,,,0.02,Wunderground v.1.15,2013-08-09 23:10:00,
2013-08-09 13:15:00,88.4,77.4,30.06,NE,45,9.0,-999.0,70,0.00,,,0.02,Wunderground v.1.15,2013-08-09 23:15:00,
2013-08-09 13:20:00,88.4,77.4,30.06,NE,45,9.0,-999.0,70,0.00,,,0.02,Wunderground v.1.15,2013-08-09 23:20:00,
2013-08-09 13:25:00,88.4,77.4,30.06,NE,45,9.0,-999.0,70,0.00,,,0.02,Wunderground v.1.15,2013-08-09 23:25:00,
2013-08-09 13:30:00,88.4,77.4,30.06,NE,45,9.0,-999.0,70,0.00,,,0.02,Wunderground v.1.15,2013-08-09 23:30:00,
2013-08-09 13:35:00,88.4,77.4,30.06,NE,45,9.0,-999.0,70,0.00,,,0.02,Wunderground v.1.15,2013-08-09 23:35:00,
2013-08-09 13:40:00,88.4,77.4,30.06,NE,45,9.0,-999.0,70,0.00,,,0.02,Wunderground v.1.15,2013-08-09 23:40:00,
2013-08-09 13:45:00,83.5,73.9,30.05,NE,45,7.0,-999.0,73,0.00,,,0.02,Wunderground v.1.15,2013-08-09 23:45:00,
2013-08-09 13:50:00,83.5,73.9,30.05,NE,45,7.0,-999.0,73,0.00,,,0.02,Wunderground v.1.15,2013-08-09 23:50:00,
2013-08-09 13:55:00,83.5,73.9,30.05,NE,45,7.0,-999.0,73,0.00,,,0.02,Wunderground v.1.15,2013-08-09 23:55:00,
2013-08-09 14:00:00,83.5,73.9,30.05,NE,45,7.0,-999.0,73,0.00,,,0.02,Wunderground v.1.15,2013-08-10 00:00:00,
2013-08-09 14:05:00,83.5,73.9,30.05,NE,45,7.0,-999.0,73,0.00,,,0.02,Wunderground v.1.15,2013-08-10 00:05:00,
2013-08-09 14:10:00,83.5,73.9,30.05,NE,45,7.0,-999.0,73,0.00,,,0.02,Wunderground v.1.15,2013-08-10 00:10:00,
2013-08-09 14:15:00,85.5,75.0,30.05,NE,45,8.0,-999.0,71,0.00,,,0.02,Wunderground v.1.15,2013-08-10 00:15:00,
2013-08-09 14:20:00,85.5,75.0,30.05,NE,45,8.0,-999.0,71,0.00,,,0.02,Wunderground v.1.15,2013-08-10 00:20:00,
2013-08-09 14:25:00,85.5,75.0,30.05,NE,45,8.0,-999.0,71,0.00,,,0.02,Wunderground v.1.15,2013-08-10 00:25:00,
2013-08-09 14:30:00,85.5,75.0,30.05,NE,45,8.0,-999.0,71,0.00,,,0.02,Wunderground v.1.15,2013-08-10 00:30:00,
2013-08-09 14:35:00,85.5,75.0,30.05,NE,45,8.0,-999.0,71,0.00,,,0.02,Wunderground v.1.15,2013-08-10 00:35:00,
2013-08-09 14:40:00,85.5,75.0,30.05,NE,45,8.0,-999.0,71,0.00,,,0.02,Wunderground v.1.15,2013-08-10 00:40:00,
2013-08-09 14:45:00,85.7,73.9,30.05,NE,45,7.0,-999.0,68,0.00,,,0.02,Wunderground v.1.15,2013-08-10 00:45:00,
2013-08-09 14:50:00,85.7,73.9,30.05,NE,45,7.0,-999.0,68,0.00,,,0.02,Wunderground v.1.15,2013-08-10 00:50:00,
2013-08-09 14:55:00,85.7,73.9,30.05,NE,45,7.0,-999.0,68,0.00,,,0.02,Wunderground v.1.15,2013-08-10 00:55:00,
2013-08-09 15:00:00,85.7,73.9,30.05,NE,45,7.0,-999.0,68,0.00,,,0.02,Wunderground v.1.15,2013-08-10 01:00:00,
2013-08-09 15:05:00,85.7,73.9,30.05,NE,45,7.0,-999.0,68,0.00,,,0.02,Wunderground v.1.15,2013-08-10 01:05:00,
2013-08-09 15:10:00,85.7,73.9,30.05,NE,45,7.0,-999.0,68,0.00,,,0.02,Wunderground v.1.15,2013-08-10 01:10:00,
2013-08-09 15:15:00,86.2,74.4,30.03,NE,45,8.0,-999.0,68,0.00,,,0.02,Wunderground v.1.15,2013-08-10 01:15:00,
2013-08-09 15:20:00,86.2,74.4,30.03,NE,45,8.0,-999.0,68,0.00,,,0.02,Wunderground v.1.15,2013-08-10 01:20:00,
2013-08-09 15:25:00,86.2,74.4,30.03,NE,45,8.0,-999.0,68,0.00,,,0.02,Wunderground v.1.15,2013-08-10 01:25:00,
2013-08-09 15:30:00,86.2,74.4,30.03,NE,45,8.0,-999.0,68,0.00,,,0.02,Wunderground v.1.15,2013-08-10 01:30:00,
2013-08-09 15:35:00,86.2,74.4,30.03,NE,45,8.0,-999.0,68,0.00,,,0.02,Wunderground v.1.15,2013-08-10 01:35:00,
2013-08-09 15:40:00,86.2,74.4,30.03,NE,45,8.0,-999.0,68,0.00,,,0.02,Wunderground v.1.15,2013-08-10 01:40:00,
2013-08-09 15:45:00,83.2,74.8,30.03,NE,45,8.0,-999.0,76,0.00,,,0.02,Wunderground v.1.15,2013-08-10 01:45:00,
2013-08-09 15:50:00,83.2,74.8,30.03,NE,45,8.0,-999.0,76,0.00,,,0.02,Wunderground v.1.15,2013-08-10 01:50:00,
2013-08-09 15:55:00,83.2,74.8,30.03,NE,45,8.0,-999.0,76,0.00,,,0.02,Wunderground v.1.15,2013-08-10 01:55:00,
2013-08-09 16:00:00,83.2,74.8,30.03,NE,45,8.0,-999.0,76,0.00,,,0.02,Wunderground v.1.15,2013-08-10 02:00:00,
2013-08-09 16:05:00,83.2,74.8,30.03,NE,45,8.0,-999.0,76,0.00,,,0.02,Wunderground v.1.15,2013-08-10 02:05:00,
2013-08-09 16:10:00,83.2,74.8,30.03,NE,45,8.0,-999.0,76,0.00,,,0.02,Wunderground v.1.15,2013-08-10 02:10:00,
2013-08-09 16:15:00,80.2,75.3,30.03,NE,45,7.0,-999.0,85,0.00,,,0.02,Wunderground v.1.15,2013-08-10 02:15:00,
2013-08-09 16:20:00,80.2,75.3,30.03,NE,45,7.0,-999.0,85,0.00,,,0.02,Wunderground v.1.15,2013-08-10 02:20:00,
2013-08-09 16:25:00,80.2,75.3,30.03,NE,45,7.0,-999.0,85,0.00,,,0.02,Wunderground v.1.15,2013-08-10 02:25:00,
2013-08-09 16:30:00,80.2,75.3,30.03,NE,45,7.0,-999.0,85,0.00,,,0.02,Wunderground v.1.15,2013-08-10 02:30:00,
2013-08-09 16:35:00,80.2,75.3,30.03,NE,45,7.0,-999.0,85,0.00,,,0.02,Wunderground v.1.15,2013-08-10 02:35:00,
2013-08-09 16:40:00,80.2,75.3,30.03,NE,45,7.0,-999.0,85,0.00,,,0.02,Wunderground v.1.15,2013-08-10 02:40:00,
2013-08-09 16:45:00,78.1,73.9,30.02,NE,45,6.0,-999.0,87,0.00,,,0.02,Wunderground v.1.15,2013-08-10 02:45:00,
2013-08-09 16:50:00,78.1,73.9,30.02,NE,45,6.0,-999.0,87,0.00,,,0.02,Wunderground v.1.15,2013-08-10 02:50:00,
2013-08-09 16:55:00,78.1,73.9,30.02,NE,45,6.0,-999.0,87,0.00,,,0.02,Wunderground v.1.15,2013-08-10 02:55:00,
2013-08-09 17:00:00,78.1,73.9,30.02,NE,45,6.0,-999.0,87,0.00,,,0.02,Wunderground v.1.15,2013-08-10 03:00:00,
2013-08-09 17:05:00,78.1,73.9,30.02,NE,45,6.0,-999.0,87,0.00,,,0.02,Wunderground v.1.15,2013-08-10 03:05:00,
2013-08-09 17:10:00,78.1,73.9,30.02,NE,45,6.0,-999.0,87,0.00,,,0.02,Wunderground v.1.15,2013-08-10 03:10:00,
2013-08-09 17:15:00,76.8,73.3,30.02,NE,45,9.0,-999.0,89,0.01,,,0.02,Wunderground v.1.15,2013-08-10 03:15:00,
2013-08-09 17:20:00,76.8,73.3,30.02,NE,45,9.0,-999.0,89,0.01,,,0.02,Wunderground v.1.15,2013-08-10 03:20:00,
2013-08-09 17:25:00,76.8,73.3,30.02,NE,45,9.0,-999.0,89,0.01,,,0.02,Wunderground v.1.15,2013-08-10 03:25:00,
2013-08-09 17:30:00,76.8,73.3,30.02,NE,45,9.0,-999.0,89,0.01,,,0.02,Wunderground v.1.15,2013-08-10 03:30:00,
2013-08-09 17:35:00,76.8,73.3,30.02,NE,45,9.0,-999.0,89,0.01,,,0.02,Wunderground v.1.15,2013-08-10 03:35:00,
2013-08-09 17:40:00,76.8,73.3,30.02,NE,45,9.0,-999.0,89,0.01,,,0.02,Wunderground v.1.15,2013-08-10 03:40:00,
2013-08-09 17:45:00,75.2,72.1,30.03,NE,45,10.0,-999.0,90,0.01,,,0.02,Wunderground v.1.15,2013-08-10 03:45:00,
2013-08-09 17:50:00,75.2,72.1,30.03,NE,45,10.0,-999.0,90,0.01,,,0.02,Wunderground v.1.15,2013-08-10 03:50:00,
2013-08-09 17:55:00,75.2,72.1,30.03,NE,45,10.0,-999.0,90,0.01,,,0.02,Wunderground v.1.15,2013-08-10 03:55:00,
2013-08-09 18:00:00,75.2,72.1,30.03,NE,45,10.0,-999.0,90,0.01,,,0.02,Wunderground v.1.15,2013-08-10 04:00:00,
2013-08-09 18:05:00,75.2,72.1,30.03,NE,45,10.0,-999.0,90,0.01,,,0.02,Wunderground v.1.15,2013-08-10 04:05:00,
2013-08-09 18:10:00,75.2,72.1,30.03,NE,45,10.0,-999.0,90,0.01,,,0.02,Wunderground v.1.15,2013-08-10 04:10:00,
2013-08-09 18:15:00,74.1,71.3,30.05,NE,45,10.0,-999.0,91,0.00,,,0.02,Wunderground v.1.15,2013-08-10 04:15:00,
2013-08-09 18:20:00,74.1,71.3,30.05,NE,45,10.0,-999.0,91,0.00,,,0.02,Wunderground v.1.15,2013-08-10 04:20:00,
2013-08-09 18:25:00,74.1,71.3,30.05,NE,45,10.0,-999.0,91,0.00,,,0.02,Wunderground v.1.15,2013-08-10 04:25:00,
2013-08-09 18:30:00,74.1,71.3,30.05,NE,45,10.0,-999.0,91,0.00,,,0.02,Wunderground v.1.15,2013-08-10 04:30:00,
2013-08-09 18:35:00,74.1,71.3,30.05,NE,45,10.0,-999.0,91,0.00,,,0.02,Wunderground v.1.15,2013-08-10 04:35:00,
2013-08-09 18:40:00,74.1,71.3,30.05,NE,45,10.0,-999.0,91,0.00,,,0.02,Wunderground v.1.15,2013-08-10 04:40:00,
2013-08-09 18:45:00,72.8,70.3,30.05,NE,45,10.0,-999.0,92,0.00,,,0.02,Wunderground v.1.15,2013-08-10 04:45:00,
2013-08-09 18:50:00,72.8,70.3,30.05,NE,45,10.0,-999.0,92,0.00,,,0.02,Wunderground v.1.15,2013-08-10 04:50:00,
2013-08-09 18:55:00,72.8,70.3,30.05,NE,45,10.0,-999.0,92,0.00,,,0.02,Wunderground v.1.15,2013-08-10 04:55:00,
2013-08-09 19:00:00,72.8,70.3,30.05,NE,45,10.0,-999.0,92,0.00,,,0.02,Wunderground v.1.15,2013-08-10 05:00:00,
2013-08-09 19:05:00,72.8,70.3,30.05,NE,45,10.0,-999.0,92,0.00,,,0.02,Wunderground v.1.15,2013-08-10 05:05:00,
2013-08-09 19:10:00,72.8,70.3,30.05,NE,45,10.0,-999.0,92,0.00,,,0.02,Wunderground v.1.15,2013-08-10 05:10:00,
2013-08-09 19:15:00,72.7,70.6,30.06,NE,45,9.0,-999.0,93,0.01,,,0.02,Wunderground v.1.15,2013-08-10 05:15:00,
2013-08-09 19:20:00,72.7,70.6,30.06,NE,45,9.0,-999.0,93,0.01,,,0.02,Wunderground v.1.15,2013-08-10 05:20:00,
2013-08-09 19:25:00,72.7,70.6,30.06,NE,45,9.0,-999.0,93,0.01,,,0.02,Wunderground v.1.15,2013-08-10 05:25:00,
2013-08-09 19:30:00,72.7,70.6,30.06,NE,45,9.0,-999.0,93,0.01,,,0.02,Wunderground v.1.15,2013-08-10 05:30:00,
2013-08-09 19:35:00,72.7,70.6,30.06,NE,45,9.0,-999.0,93,0.01,,,0.02,Wunderground v.1.15,2013-08-10 05:35:00,
2013-08-09 19:40:00,72.7,70.6,30.06,NE,45,9.0,-999.0,93,0.01,,,0.02,Wunderground v.1.15,2013-08-10 05:40:00,
2013-08-09 19:45:00,73.0,70.9,30.07,NE,45,10.0,-999.0,93,0.01,,,0.02,Wunderground v.1.15,2013-08-10 05:45:00,
2013-08-09 19:50:00,73.0,70.9,30.07,NE,45,10.0,-999.0,93,0.01,,,0.02,Wunderground v.1.15,2013-08-10 05:50:00,
2013-08-09 19:55:00,73.0,70.9,30.07,NE,45,10.0,-999.0,93,0.01,,,0.02,Wunderground v.1.15,2013-08-10 05:55:00,
2013-08-09 20:00:00,73.0,70.9,30.07,NE,45,10.0,-999.0,93,0.01,,,0.02,Wunderground v.1.15,2013-08-10 06:00:00,
2013-08-09 20:05:00,73.0,70.9,30.07,NE,45,10.0,-999.0,93,0.01,,,0.02,Wunderground v.1.15,2013-08-10 06:05:00,
2013-08-09 20:10:00,73.0,70.9,30.07,NE,45,10.0,-999.0,93,0.01,,,0.02,Wunderground v.1.15,2013-08-10 06:10:00,
2013-08-09 20:15:00,72.7,70.6,30.07,NE,45,9.0,-999.0,93,0.00,,,0.02,Wunderground v.1.15,2013-08-10 06:15:00,
2013-08-09 20:20:00,72.7,70.6,30.07,NE,45,9.0,-999.0,93,0.00,,,0.02,Wunderground v.1.15,2013-08-10 06:20:00,
2013-08-09 20:25:00,72.7,70.6,30.07,NE,45,9.0,-999.0,93,0.00,,,0.02,Wunderground v.1.15,2013-08-10 06:25:00,
2013-08-09 20:30:00,72.7,70.6,30.07,NE,45,9.0,-999.0,93,0.00,,,0.02,Wunderground v.1.15,2013-08-10 06:30:00,
2013-08-09 20:35:00,72.7,70.6,30.07,NE,45,9.0,-999.0,93,0.00,,,0.02,Wunderground v.1.15,2013-08-10 06:35:00,
2013-08-09 20:40:00,72.7,70.6,30.07,NE,45,9.0,-999.0,93,0.00,,,0.02,Wunderground v.1.15,2013-08-10 06:40:00,
2013-08-09 20:45:00,72.9,71.1,30.07,NE,45,10.0,-999.0,94,0.00,,,0.02,Wunderground v.1.15,2013-08-10 06:45:00,
2013-08-09 20:50:00,72.9,71.1,30.07,NE,45,10.0,-999.0,94,0.00,,,0.02,Wunderground v.1.15,2013-08-10 06:50:00,
2013-08-09 20:55:00,72.9,71.1,30.07,NE,45,10.0,-999.0,94,0.00,,,0.02,Wunderground v.1.15,2013-08-10 06:55:00,
2013-08-09 21:00:00,72.9,71.1,30.07,NE,45,10.0,-999.0,94,0.00,,,0.02,Wunderground v.1.15,2013-08-10 07:00:00,
2013-08-09 21:05:00,72.9,71.1,30.07,NE,45,10.0,-999.0,94,0.00,,,0.02,Wunderground v.1.15,2013-08-10 07:05:00,
2013-08-09 21:10:00,72.9,71.1,30.07,NE,45,10.0,-999.0,94,0.00,,,0.02,Wunderground v.1.15,2013-08-10 07:10:00,
2013-08-09 21:15:00,72.6,70.8,30.08,NE,45,10.0,-999.0,94,0.00,,,0.02,Wunderground v.1.15,2013-08-10 07:15:00,
2013-08-09 21:20:00,72.6,70.8,30.08,NE,45,10.0,-999.0,94,0.00,,,0.02,Wunderground v.1.15,2013-08-10 07:20:00,
2013-08-09 21:25:00,72.6,70.8,30.08,NE,45,10.0,-999.0,94,0.00,,,0.02,Wunderground v.1.15,2013-08-10 07:25:00,
2013-08-09 21:30:00,72.6,70.8,30.08,NE,45,10.0,-999.0,94,0.00,,,0.02,Wunderground v.1.15,2013-08-10 07:30:00,
2013-08-09 21:35:00,72.6,70.8,30.08,NE,45,10.0,-999.0,94,0.00,,,0.02,Wunderground v.1.15,2013-08-10 07:35:00,
2013-08-09 21:40:00,72.6,70.8,30.08,NE,45,10.0,-999.0,94,0.00,,,0.02,Wunderground v.1.15,2013-08-10 07:40:00,
2013-08-09 21:45:00,73.2,71.4,30.08,NE,45,9.0,-999.0,94,0.00,,,0.02,Wunderground v.1.15,2013-08-10 07:45:00,
2013-08-09 21:50:00,73.2,71.4,30.08,NE,45,9.0,-999.0,94,0.00,,,0.02,Wunderground v.1.15,2013-08-10 07:50:00,
2013-08-09 21:55:00,73.2,71.4,30.08,NE,45,9.0,-999.0,94,0.00,,,0.02,Wunderground v.1.15,2013-08-10 07:55:00,
2013-08-09 22:00:00,73.8,72.0,30.08,NNE,30,9.0,14.0,94,0.00,,,0.26,Wunderground v.1.15,2013-08-10 08:00:00,
2013-08-09 22:05:00,73.2,71.4,30.08,NE,45,9.0,-999.0,94,0.00,,,0.02,Wunderground v.1.15,2013-08-10 08:05:00,
2013-08-09 22:10:00,73.2,71.4,30.08,NE,45,9.0,-999.0,94,0.00,,,0.02,Wunderground v.1.15,2013-08-10 08:10:00,
2013-08-09 22:15:00,73.8,72.0,30.07,NE,45,10.0,-999.0,94,0.00,,,0.02,Wunderground v.1.15,2013-08-10 08:15:00,
2013-08-09 22:20:00,73.8,72.0,30.07,NE,45,10.0,-999.0,94,0.00,,,0.02,Wunderground v.1.15,2013-08-10 08:20:00,
2013-08-09 22:25:00,73.8,72.0,30.07,NE,45,10.0,-999.0,94,0.00,,,0.02,Wunderground v.1.15,2013-08-10 08:25:00,
2013-08-09 22:30:00,73.8,72.0,30.07,NE,45,10.0,-999.0,94,0.00,,,0.02,Wunderground v.1.15,2013-08-10 08:30:00,
2013-08-09 22:35:00,73.8,72.0,30.07,NE,45,10.0,-999.0,94,0.00,,,0.02,Wunderground v.1.15,2013-08-10 08:35:00,
2013-08-09 22:40:00,73.8,72.0,30.07,NE,45,10.0,-999.0,94,0.00,,,0.02,Wunderground v.1.15,2013-08-10 08:40:00,
2013-08-09 22:45:00,73.9,72.1,30.08,NE,45,10.0,-999.0,94,0.00,,,0.02,Wunderground v.1.15,2013-08-10 08:45:00,
2013-08-09 22:50:00,73.9,72.1,30.08,NE,45,10.0,-999.0,94,0.00,,,0.02,Wunderground v.1.15,2013-08-10 08:50:00,
2013-08-09 22:55:00,73.9,72.1,30.08,NE,45,10.0,-999.0,94,0.00,,,0.02,Wunderground v.1.15,2013-08-10 08:55:00,
2013-08-09 23:00:00,73.9,72.1,30.08,NE,45,10.0,-999.0,94,0.00,,,0.02,Wunderground v.1.15,2013-08-10 09:00:00,
2013-08-09 23:05:00,73.9,72.1,30.08,NE,45,10.0,-999.0,94,0.00,,,0.02,Wunderground v.1.15,2013-08-10 09:05:00,
2013-08-09 23:10:00,73.9,72.1,30.08,NE,45,10.0,-999.0,94,0.00,,,0.02,Wunderground v.1.15,2013-08-10 09:10:00,
2013-08-09 23:15:00,73.9,72.1,30.08,NE,45,9.0,-999.0,94,0.00,,,0.02,Wunderground v.1.15,2013-08-10 09:15:00,
2013-08-09 23:20:00,73.9,72.1,30.08,NE,45,9.0,-999.0,94,0.00,,,0.02,Wunderground v.1.15,2013-08-10 09:20:00,
2013-08-09 23:25:00,73.9,72.1,30.08,NE,45,9.0,-999.0,94,0.00,,,0.02,Wunderground v.1.15,2013-08-10 09:25:00,
2013-08-09 23:30:00,73.9,72.1,30.08,NE,45,9.0,-999.0,94,0.00,,,0.02,Wunderground v.1.15,2013-08-10 09:30:00,
2013-08-09 23:35:00,73.9,72.1,30.08,NE,45,9.0,-999.0,94,0.00,,,0.02,Wunderground v.1.15,2013-08-10 09:35:00,
2013-08-09 23:40:00,73.9,72.1,30.08,NE,45,9.0,-999.0,94,0.00,,,0.02,Wunderground v.1.15,2013-08-10 09:40:00,
2013-08-09 23:45:00,73.9,72.1,30.07,NE,45,10.0,-999.0,94,0.00,,,0.02,Wunderground v.1.15,2013-08-10 09:45:00,
2013-08-09 23:50:00,73.9,72.1,30.07,NE,45,10.0,-999.0,94,0.00,,,0.02,Wunderground v.1.15,2013-08-10 09:50:00,
2013-08-09 23:55:00,73.9,72.1,30.07,NE,45,10.0,-999.0,94,0.00,,,0.02,Wunderground v.1.15,2013-08-10 09:55:00,